Location: Cumbre Roja
(10.2766°N, 67.0675°W)
Time: 22:34:57
(UTC+00:00)

ATLAS 5 CENTAUR R/B - Pass Details

Date: 18 November 2025
Orbit: 373 x 1089 km, 63.3° (Epoch: 14 December)

Event Time Altitude Azimuth Distance (km) Brightness Sun altitude
Rises 22:55:52 0° 332° (NNW) 3,263 5.4 -13.3°
Reaches altitude 10° 22:58:06 10° 331° (NNW) 2,437 4.7 -13.8°
Maximum altitude 23:03:52 74° 246° (WSW) 983 2.7 -15.1°
Drops below altitude 10° 23:10:40 10° 162° (SSE) 2,851 4.9 -16.7°
Sets 23:13:28 0° 161° (SSE) 3,853 5.6 -17.4°
